When you browse on this site, cookies collect data to enhance your experience and personalize the content and advertising you see.
Visit our Privacy Policy to learn more. By continuing to use the site, you agree to this use of cookies and data.
  • In Czech Republic
  • List of Countries
  • For 7 days
  • Water Temperature
  • Satellite Maps
  • Weather Map
  • Weather Widgets
  • user-avatar
    Login

    Hourly Weather Chimoio

    Today, 25 March, Monday

    Time Temperature Precipitation Wind Pressure Humidity
    00:00 +20°C° 0 mm 1 mps 702 mmHg 97%
    01:00 +20°C° 0 mm 1 mps 702 mmHg 97%
    02:00 +19°C° 0 mm 1 mps 702 mmHg 96%
    03:00 +19°C° 0 mm 1 mps 701 mmHg 96%
    04:00 +19°C° 0 mm 1 mps 701 mmHg 96%
    05:00 +19°C° 0 mm 1 mps 701 mmHg 96%
    06:00 +20°C° 0 mm 1 mps 701 mmHg 92%
    07:00 +22°C° 0 mm 1 mps 702 mmHg 88%
    08:00 +21°C° 0 mm 0 mps 702 mmHg 84%
    09:00 +24°C° 0 mm 0 mps 703 mmHg 77%
    10:00 +26°C° 0 mm 0 mps 703 mmHg 70%
    11:00 +28°C° 0 mm 0 mps 703 mmHg 64%
    12:00 +28°C° 0 mm 0 mps 702 mmHg 62%
    13:00 +30°C° 0 mm 1 mps 702 mmHg 61%
    14:00 +30°C° 0 mm 1 mps 701 mmHg 59%
    15:00 +29°C° 0 mm 1 mps 701 mmHg 67%
    16:00 +27°C° 0 mm 1 mps 700 mmHg 74%
    17:00 +26°C° 0 mm 1 mps 700 mmHg 81%
    18:00 +25°C° 0 mm 1 mps 700 mmHg 85%
    19:00 +21°C° 0 mm 0 mps 700 mmHg 89%
    20:00 +20°C° 0 mm 0 mps 700 mmHg 93%
    21:00 +19°C° 0 mm 0 mps 700 mmHg 93%
    22:00 +19°C° 0 mm 0 mps 701 mmHg 93%
    23:00 +19°C° 0 mm 0 mps 701 mmHg 94%

    Tomorrow, 26 March, Tuesday

    Time Temperature Precipitation Wind Pressure Humidity
    00:00 +21°C° 0 mm 1 mps 701 mmHg 94%
    01:00 +20°C° 0 mm 1 mps 701 mmHg 95%
    02:00 +20°C° 0 mm 1 mps 700 mmHg 95%
    03:00 +20°C° 0 mm 1 mps 700 mmHg 96%
    04:00 +20°C° 0 mm 1 mps 700 mmHg 96%
    05:00 +20°C° 0 mm 1 mps 700 mmHg 97%
    06:00 +22°C° 0 mm 1 mps 701 mmHg 93%
    07:00 +21°C° 0 mm 0 mps 702 mmHg 88%
    08:00 +23°C° 0 mm 0 mps 703 mmHg 84%
    09:00 +26°C° 0 mm 1 mps 703 mmHg 77%
    10:00 +28°C° 0 mm 1 mps 703 mmHg 70%
    11:00 +29°C° 0 mm 2 mps 704 mmHg 63%
    12:00 +29°C° 0 mm 2 mps 703 mmHg 62%
    13:00 +29°C° 0 mm 2 mps 703 mmHg 62%
    14:00 +30°C° 0 mm 3 mps 702 mmHg 62%
    15:00 +28°C° 0.1 mm 3 mps 702 mmHg 70%
    16:00 +27°C° 0.1 mm 2 mps 702 mmHg 78%
    17:00 +26°C° 0.1 mm 2 mps 702 mmHg 86%
    18:00 +25°C° 0.2 mm 2 mps 703 mmHg 89%
    19:00 +23°C° 0.2 mm 1 mps 703 mmHg 93%
    20:00 +22°C° 0.2 mm 1 mps 704 mmHg 96%
    21:00 +22°C° 0.3 mm 1 mps 704 mmHg 97%
    22:00 +22°C° 0.3 mm 1 mps 705 mmHg 97%
    23:00 +19°C° 0.3 mm 0 mps 705 mmHg 97%

    Day after tomorrow, 27 March, Wednesday

    Time Temperature Precipitation Wind Pressure Humidity
    00:00 +19°C° 0.4 mm 0 mps 705 mmHg 97%
    01:00 +20°C° 0.4 mm 0 mps 705 mmHg 97%
    02:00 +20°C° 0.4 mm 0 mps 705 mmHg 97%
    03:00 +22°C° 0.4 mm 1 mps 705 mmHg 97%
    04:00 +22°C° 0.4 mm 1 mps 705 mmHg 97%
    05:00 +22°C° 0.4 mm 1 mps 705 mmHg 97%
    06:00 +21°C° 0.2 mm 2 mps 705 mmHg 97%
    07:00 +21°C° 0.2 mm 2 mps 706 mmHg 96%
    08:00 +22°C° 0.2 mm 3 mps 707 mmHg 95%
    09:00 +22°C° 0.3 mm 3 mps 707 mmHg 92%
    10:00 +24°C° 0.3 mm 3 mps 707 mmHg 89%
    11:00 +24°C° 0.3 mm 3 mps 707 mmHg 87%
    12:00 +25°C° 0.4 mm 3 mps 706 mmHg 85%
    13:00 +25°C° 0.4 mm 3 mps 706 mmHg 84%
    14:00 +26°C° 0.4 mm 3 mps 705 mmHg 82%
    15:00 +25°C° 0.6 mm 3 mps 705 mmHg 86%
    16:00 +24°C° 0.6 mm 3 mps 705 mmHg 90%
    17:00 +23°C° 0.6 mm 2 mps 705 mmHg 94%
    18:00 +23°C° 0.3 mm 2 mps 705 mmHg 95%
    19:00 +21°C° 0.3 mm 2 mps 706 mmHg 97%
    20:00 +21°C° 0.3 mm 1 mps 706 mmHg 98%
    21:00 +21°C° 0.2 mm 1 mps 707 mmHg 98%
    22:00 +21°C° 0.2 mm 1 mps 707 mmHg 98%
    23:00 +21°C° 0.2 mm 1 mps 707 mmHg 98%

    28 March, Thursday

    Time Temperature Precipitation Wind Pressure Humidity
    00:00 +21°C° 0.1 mm 1 mps 706 mmHg 99%
    01:00 +21°C° 0.1 mm 1 mps 706 mmHg 99%
    02:00 +20°C° 0.1 mm 1 mps 705 mmHg 99%
    03:00 +20°C° 0 mm 1 mps 705 mmHg 99%
    04:00 +20°C° 0 mm 1 mps 705 mmHg 99%
    05:00 +19°C° 0 mm 1 mps 705 mmHg 99%
    06:00 +20°C° 0 mm 1 mps 706 mmHg 97%
    07:00 +21°C° 0 mm 1 mps 706 mmHg 95%
    08:00 +22°C° 0 mm 1 mps 707 mmHg 94%
    09:00 +24°C° 0 mm 1 mps 706 mmHg 84%
    10:00 +26°C° 0 mm 1 mps 706 mmHg 75%
    11:00 +28°C° 0 mm 1 mps 706 mmHg 66%
    12:00 +28°C° 0 mm 1 mps 705 mmHg 64%
    13:00 +28°C° 0 mm 1 mps 705 mmHg 63%
    14:00 +29°C° 0 mm 1 mps 704 mmHg 62%
    15:00 +28°C° 0 mm 1 mps 703 mmHg 69%
    16:00 +27°C° 0 mm 1 mps 703 mmHg 76%
    17:00 +26°C° 0 mm 1 mps 703 mmHg 83%
    18:00 +24°C° 0 mm 1 mps 703 mmHg 87%
    19:00 +23°C° 0 mm 1 mps 703 mmHg 92%
    20:00 +19°C° 0 mm 0 mps 703 mmHg 97%
    21:00 +19°C° 0 mm 0 mps 703 mmHg 98%
    22:00 +19°C° 0 mm 0 mps 703 mmHg 98%
    23:00 +19°C° 0 mm 0 mps 703 mmHg 98%

    29 March, Friday

    Time Temperature Precipitation Wind Pressure Humidity
    00:00 +19°C° 0 mm 0 mps 703 mmHg 98%
    01:00 +18°C° 0 mm 0 mps 702 mmHg 99%
    02:00 +20°C° 0 mm 1 mps 702 mmHg 99%
    03:00 +20°C° 0 mm 1 mps 702 mmHg 99%
    04:00 +20°C° 0 mm 1 mps 702 mmHg 98%
    05:00 +20°C° 0 mm 1 mps 702 mmHg 98%
    06:00 +21°C° 0 mm 1 mps 703 mmHg 95%
    07:00 +22°C° 0 mm 1 mps 703 mmHg 92%
    08:00 +23°C° 0 mm 1 mps 704 mmHg 89%
    09:00 +24°C° 0 mm 0 mps 704 mmHg 82%
    10:00 +26°C° 0 mm 0 mps 704 mmHg 74%
    11:00 +28°C° 0 mm 0 mps 704 mmHg 66%
    12:00 +30°C° 0 mm 1 mps 703 mmHg 65%
    13:00 +30°C° 0 mm 2 mps 703 mmHg 64%
    14:00 +29°C° 0 mm 2 mps 702 mmHg 63%
    15:00 +28°C° 0 mm 2 mps 702 mmHg 69%
    16:00 +27°C° 0 mm 2 mps 702 mmHg 76%
    17:00 +26°C° 0 mm 2 mps 702 mmHg 83%
    18:00 +25°C° 0 mm 1 mps 702 mmHg 87%
    19:00 +23°C° 0 mm 1 mps 702 mmHg 92%
    20:00 +20°C° 0 mm 0 mps 703 mmHg 96%
    21:00 +20°C° 0 mm 0 mps 703 mmHg 96%
    22:00 +20°C° 0 mm 0 mps 703 mmHg 97%
    23:00 +19°C° 0 mm 0 mps 703 mmHg 97%

    30 March, Saturday

    Time Temperature Precipitation Wind Pressure Humidity
    00:00 +19°C° 0.1 mm 0 mps 703 mmHg 97%
    01:00 +19°C° 0.1 mm 0 mps 702 mmHg 97%
    02:00 +19°C° 0.1 mm 0 mps 702 mmHg 98%
    03:00 +19°C° 0.2 mm 0 mps 702 mmHg 98%
    04:00 +21°C° 0.2 mm 1 mps 703 mmHg 98%
    05:00 +21°C° 0.2 mm 1 mps 703 mmHg 98%
    06:00 +21°C° 0.3 mm 1 mps 703 mmHg 97%
    07:00 +22°C° 0.3 mm 1 mps 703 mmHg 97%
    08:00 +22°C° 0.3 mm 1 mps 704 mmHg 97%
    09:00 +23°C° 0.2 mm 2 mps 704 mmHg 92%
    10:00 +24°C° 0.2 mm 2 mps 704 mmHg 87%
    11:00 +26°C° 0.2 mm 3 mps 704 mmHg 82%
    12:00 +26°C° 0 mm 3 mps 703 mmHg 77%
    13:00 +27°C° 0 mm 3 mps 703 mmHg 73%
    14:00 +28°C° 0 mm 3 mps 702 mmHg 68%
    15:00 +27°C° 0.1 mm 3 mps 702 mmHg 74%
    16:00 +26°C° 0.1 mm 3 mps 702 mmHg 80%
    17:00 +25°C° 0.1 mm 3 mps 701 mmHg 87%
    18:00 +23°C° 0 mm 2 mps 702 mmHg 90%
    19:00 +21°C° 0 mm 2 mps 702 mmHg 94%
    20:00 +21°C° 0 mm 1 mps 702 mmHg 98%
    21:00 +21°C° 0.1 mm 1 mps 702 mmHg 97%
    22:00 +21°C° 0.1 mm 1 mps 702 mmHg 96%
    23:00 +20°C° 0.1 mm 1 mps 702 mmHg 95%
    Show more